Weather History for Roxboro, NC

Change the Weather History Date:

Wednesday, March 7, 2012

  Actual Average Record
Temperature  
Mean Temperature 49 °F -  
Max Temperature 68 °F 58 °F 84 °F (1974)
Min Temperature 30 °F 34 °F 18 °F (1960)
Degree Days  
Heating Degree Days 16    
Moisture  
Dew Point 36 °F    
Average Humidity 65    
Maximum Humidity 100    
Minimum Humidity 37    
Precipitation  
Precipitation 0.00 in - - ()
Sea Level Pressure  
Sea Level Pressure 30.58 in    
Wind  
Wind Speed 5 mph (SSW)    
Max Wind Speed 20 mph    
Max Gust Speed 25 mph    
Visibility 10 miles    
Events      
Averages and records for this station are not official NWS values.
T = Trace of Precipitation, MM = Missing Value Source: NWS Daily Summary

Daily Weather History Graph

Daily Weather History Graph

Search for Another Location

Airport:

Trip Planner

Search our weather history database for the weather conditions in past years. The results will help you decide how hot, cold, wet, or windy it might be!

Date:

Astronomy

Mar. 07, 2012 Rise Set
Actual Time 6:37 AM EST 6:16 PM EST
Civil Twilight 6:11 AM EST 6:42 PM EST
Nautical Twilight 5:42 AM EST 7:12 PM EST
Astronomical Twilight 5:12 AM EST 7:42 PM EST
Moon 5:50 PM EST (3/7) 5:46 AM EST (3/7)
Length of Visible Light 12h 30m
Length of Day
11h 39m
Waxing Gibbous, 99% of the Moon is Illuminated
Mar 7
Waxing Gibbous
Mar 8
Full
Mar 14
Last Quarter
Mar 22
New
Mar 30
First Quarter

Hourly Weather History & Observations

Time (EST) Temp. Windchill Dew Point Humidity Pressure Visibility Wind Dir Wind Speed Gust Speed Precip Events Conditions
12:15 AM 35.6 °F 31.7 °F 26.6 °F 70% 30.65 in 10.0 mi South 4.6 mph - N/A   Clear
12:35 AM 39.2 °F 34.2 °F 28.4 °F 65% 30.64 in 10.0 mi South 6.9 mph - N/A   Clear
12:55 AM 39.2 °F 35.0 °F 30.2 °F 70% 30.64 in 10.0 mi SSW 5.8 mph - N/A   Clear
1:15 AM 39.2 °F 35.9 °F 30.2 °F 70% 30.64 in 10.0 mi South 4.6 mph - N/A   Clear
1:35 AM 37.4 °F 33.8 °F 30.2 °F 75% 30.64 in 10.0 mi SSW 4.6 mph - N/A   Clear
1:55 AM 37.4 °F 33.8 °F 30.2 °F 75% 30.64 in 10.0 mi South 4.6 mph - N/A   Clear
2:15 AM 37.4 °F 34.9 °F 30.2 °F 75% 30.63 in 10.0 mi South 3.5 mph - N/A   Clear
2:35 AM 35.6 °F 32.8 °F 30.2 °F 81% 30.62 in 10.0 mi South 3.5 mph - N/A   Clear
2:55 AM 33.8 °F 30.8 °F 30.2 °F 87% 30.62 in 10.0 mi South 3.5 mph - N/A   Clear
3:15 AM 32.0 °F - 30.2 °F 93% 30.61 in 10.0 mi Calm Calm - N/A   Clear
3:35 AM 32.0 °F 28.7 °F 30.2 °F 93% 30.61 in 10.0 mi SSW 3.5 mph - N/A   Clear
3:55 AM 32.0 °F 28.7 °F 30.2 °F 93% 30.61 in 10.0 mi SSW 3.5 mph - N/A   Clear
4:15 AM 32.0 °F - 30.2 °F 93% 30.61 in 10.0 mi Calm Calm - N/A   Clear
4:35 AM 32.0 °F - 30.2 °F 93% 30.61 in 10.0 mi Calm Calm - N/A   Clear
4:55 AM 32.0 °F - 30.2 °F 93% 30.61 in 10.0 mi Calm Calm - N/A   Clear
5:15 AM 32.0 °F - 30.2 °F 93% 30.61 in 10.0 mi Calm Calm - N/A   Clear
5:35 AM 32.0 °F - 30.2 °F 93% 30.61 in 10.0 mi Calm Calm - N/A   Clear
5:55 AM 32.0 °F - 30.2 °F 93% 30.61 in 10.0 mi Calm Calm - N/A   Clear
6:15 AM 32.0 °F - 30.2 °F 93% 30.62 in 10.0 mi Calm Calm - N/A   Clear
6:35 AM 30.2 °F - 30.2 °F 100% 30.62 in 10.0 mi Calm Calm - N/A   Clear
6:55 AM 32.0 °F - 30.2 °F 93% 30.62 in 10.0 mi Calm Calm - N/A   Clear
7:15 AM 32.0 °F - 32.0 °F 100% 30.63 in 10.0 mi Calm Calm - N/A   Clear
7:35 AM 33.8 °F - 32.0 °F 93% 30.63 in 10.0 mi Calm Calm - N/A   Clear
7:55 AM 35.6 °F - 32.0 °F 87% 30.64 in 10.0 mi Calm Calm - N/A   Scattered Clouds
8:15 AM 37.4 °F - 32.0 °F 81% 30.64 in 10.0 mi Calm Calm - N/A   Scattered Clouds
8:35 AM 41.0 °F - 32.0 °F 70% 30.64 in 10.0 mi Calm Calm - N/A   Mostly Cloudy
8:55 AM 42.8 °F 40.1 °F 33.8 °F 70% 30.64 in 10.0 mi SSW 4.6 mph - N/A   Scattered Clouds
9:15 AM 46.4 °F - 35.6 °F 66% 30.64 in 10.0 mi Calm Calm - N/A   Clear
9:35 AM 50.0 °F - 39.2 °F 66% 30.64 in 10.0 mi SSW 4.6 mph - N/A   Clear
9:55 AM 53.6 °F - 41.0 °F 62% 30.64 in 10.0 mi SSW 8.1 mph - N/A   Clear
10:15 AM 55.4 °F - 42.8 °F 63% 30.64 in 10.0 mi SSW 9.2 mph - N/A   Clear
10:35 AM 57.2 °F - 42.8 °F 59% 30.63 in 10.0 mi South 10.4 mph 18.4 mph N/A   Clear
10:55 AM 59.0 °F - 42.8 °F 55% 30.63 in 10.0 mi SSW 8.1 mph 17.3 mph N/A   Clear
11:15 AM 60.8 °F - 44.6 °F 55% 30.63 in 10.0 mi SSW 10.4 mph - N/A   Clear
11:35 AM 60.8 °F - 42.8 °F 52% 30.62 in 10.0 mi SW 12.7 mph 21.9 mph N/A   Clear
11:55 AM 62.6 °F - 42.8 °F 48% 30.61 in 10.0 mi South 9.2 mph 18.4 mph N/A   Scattered Clouds
12:15 PM 64.4 °F - 42.8 °F 45% 30.60 in 10.0 mi SSW 10.4 mph 19.6 mph N/A   Mostly Cloudy
12:35 PM 64.4 °F - 41.0 °F 42% 30.59 in 10.0 mi SSW 19.6 mph 23.0 mph N/A   Mostly Cloudy
12:55 PM 64.4 °F - 41.0 °F 42% 30.58 in 10.0 mi South 13.8 mph 20.7 mph N/A   Mostly Cloudy
1:15 PM 66.2 °F - 41.0 °F 40% 30.56 in 10.0 mi South 16.1 mph 25.3 mph N/A   Mostly Cloudy
1:35 PM 64.4 °F - 41.0 °F 42% 30.55 in 10.0 mi SSW 11.5 mph 23.0 mph N/A   Mostly Cloudy
1:55 PM 64.4 °F - 41.0 °F 42% 30.54 in 10.0 mi SW 12.7 mph 19.6 mph N/A   Mostly Cloudy
2:15 PM 66.2 °F - 41.0 °F 40% 30.54 in 10.0 mi SSW 10.4 mph 21.9 mph N/A   Scattered Clouds
2:35 PM 68.0 °F - 41.0 °F 37% 30.52 in 10.0 mi South 13.8 mph 24.2 mph N/A   Scattered Clouds
2:55 PM 66.2 °F - 41.0 °F 40% 30.51 in 10.0 mi SW 15.0 mph 20.7 mph N/A   Mostly Cloudy
3:15 PM 64.4 °F - 41.0 °F 42% 30.51 in 10.0 mi North - - N/A   Mostly Cloudy
3:35 PM 64.4 °F - 41.0 °F 42% 30.50 in 10.0 mi SSW 11.5 mph 19.6 mph N/A   Scattered Clouds
3:55 PM 64.4 °F - 41.0 °F 42% 30.49 in 10.0 mi SSW 13.8 mph 19.6 mph N/A   Scattered Clouds
4:15 PM 66.2 °F - 41.0 °F 40% 30.48 in 10.0 mi SSW 15.0 mph 20.7 mph N/A   Scattered Clouds
4:35 PM 64.4 °F - 41.0 °F 42% 30.48 in 10.0 mi SW 10.4 mph 23.0 mph N/A   Scattered Clouds
4:55 PM 64.4 °F - 41.0 °F 42% 30.48 in 10.0 mi SSW 13.8 mph 19.6 mph N/A   Mostly Cloudy
5:15 PM 64.4 °F - 41.0 °F 42% 30.48 in 10.0 mi SSW 12.7 mph 18.4 mph N/A   Mostly Cloudy
5:35 PM 62.6 °F - 41.0 °F 45% 30.48 in 10.0 mi SSW 9.2 mph 18.4 mph N/A   Overcast
5:55 PM 62.6 °F - 41.0 °F 45% 30.48 in 10.0 mi SSW 9.2 mph - N/A   Overcast
6:15 PM 62.6 °F - 42.8 °F 48% 30.48 in 10.0 mi SSW 6.9 mph - N/A   Overcast
6:35 PM 62.6 °F - 42.8 °F 48% 30.48 in 10.0 mi SSW 6.9 mph - N/A   Overcast
6:55 PM 62.6 °F - 42.8 °F 48% 30.48 in 10.0 mi SSW 5.8 mph - N/A   Overcast
7:15 PM 60.8 °F - 42.8 °F 52% 30.47 in 10.0 mi South 6.9 mph - N/A   Mostly Cloudy
7:35 PM 60.8 °F - 42.8 °F 52% 30.47 in 10.0 mi South 4.6 mph - N/A   Mostly Cloudy
7:55 PM 59.0 °F - 42.8 °F 55% 30.47 in 10.0 mi South 3.5 mph - N/A   Mostly Cloudy
8:15 PM 59.0 °F - 42.8 °F 55% 30.47 in 10.0 mi South 5.8 mph - N/A   Clear
8:35 PM 59.0 °F - 42.8 °F 55% 30.47 in 10.0 mi South 5.8 mph - N/A   Clear
8:55 PM 59.0 °F - 44.6 °F 59% 30.47 in 10.0 mi South 5.8 mph - N/A   Clear
9:15 PM 59.0 °F - 44.6 °F 59% 30.47 in 10.0 mi South 4.6 mph - N/A   Clear
9:35 PM 57.2 °F - 44.6 °F 63% 30.47 in 10.0 mi South 5.8 mph - N/A   Clear
9:55 PM 57.2 °F - 46.4 °F 67% 30.47 in 10.0 mi South 5.8 mph - N/A   Clear
10:15 PM 55.4 °F - 46.4 °F 72% 30.47 in 10.0 mi South 4.6 mph - N/A   Clear
10:35 PM 55.4 °F - 46.4 °F 72% 30.47 in 10.0 mi South 4.6 mph - N/A   Clear
10:55 PM 55.4 °F - 48.2 °F 77% 30.47 in 10.0 mi South 5.8 mph - N/A   Clear
11:15 PM 55.4 °F - 48.2 °F 77% 30.47 in 10.0 mi South 6.9 mph - N/A   Clear
11:35 PM 55.4 °F - 48.2 °F 77% 30.46 in 10.0 mi South 8.1 mph - N/A   Clear
11:55 PM 55.4 °F - 48.2 °F 77% 30.46 in 10.0 mi South 6.9 mph - N/A   Clear